User: anonymous   Login
Location: Newark
(50.4348°N, 30.5552°E)
Time: 10:19:22
(UTC+00:00)
Language:

Transit 4A - Orbit

View from above orbital plane
View from above orbital plane
View from above satellite
View from above satellite

Ground track
Ground track

The orbit data is extracted from the following two-line orbital elements,

1   116U 61015A   20027.90677508 -.00000077 +00000-0 -45378-6 0  9993
2   116 066.8082 194.2337 0069409 109.7070 251.1514 13.91764797972125
Epoch (UTC): 27 January 2020 21:45:45
Eccentricity: 0.0069409
inclination: 66.8082°
perigee height: 872 km
apogee height: 973 km
right ascension of ascending node: 194.2337°
argument of perigee: 109.7070°
revolutions per day: 13.91764797
mean anomaly at epoch: 251.1514°
orbit number at epoch: 97212

The dashed part of the orbit path shows where the satellite is in the earth's shadow,  

DLR